******** Week 360 almanac for PRN-1 ******** ID: 1 Health: 0 Eccentricity: 0.00159740448 Time of Applicability(s): 589824 Orbital Inclination(rad): 0.9582370518 Rate of Right Ascen(r/s): -7.988904198e-09 SQRT(A) (m 1/2): 5153.574219 Right Ascen at Week(rad): 3.133916384 Argument of Perigee(rad): 0.09530042902 Mean Anom(rad): 2.330481962 Af0(s): 0.0002539882446 Af1(s/s): -7.275958e-12 week: 360 ******** Week 360 almanac for PRN-2 ******** ID: 2 Health: 0 Eccentricity: 0.01689100265 Time of Applicability(s): 589824 Orbital Inclination(rad): 0.9634561818 Rate of Right Ascen(r/s): -7.954617056e-09 SQRT(A) (m 1/2): 5153.541504 Right Ascen at Week(rad): 2.971477331 Argument of Perigee(rad): -0.8092550104 Mean Anom(rad): -2.481829989 Af0(s): 4.220576172e-05 Af1(s/s): 7.275958e-12 week: 360 ******** Week 360 almanac for PRN-3 ******** ID: 3 Health: 0 Eccentricity: 0.006499290466 Time of Applicability(s): 589824 Orbital Inclination(rad): 0.9933747992 Rate of Right Ascen(r/s): -7.440309919e-09 SQRT(A) (m 1/2): 5153.585449 Right Ascen at Week(rad): -2.16241669 Argument of Perigee(rad): 1.202204638 Mean Anom(rad): 0.208743851 Af0(s): 0.0004326090576 Af1(s/s): -1.091394e-11 week: 360 ******** Week 360 almanac for PRN-4 ******** ID: 4 Health: 0 Eccentricity: 0.003730297089 Time of Applicability(s): 589824 Orbital Inclination(rad): 0.9704250086 Rate of Right Ascen(r/s): -7.931758961e-09 SQRT(A) (m 1/2): 5153.67334 Right Ascen at Week(rad): -1.091699972 Argument of Perigee(rad): -2.877852821 Mean Anom(rad): -3.096270938 Af0(s): 3.768371582e-05 Af1(s/s): 3.637979e-12 week: 360 ******** Week 360 almanac for PRN-5 ******** ID: 5 Health: 0 Eccentricity: 0.005399703979 Time of Applicability(s): 589824 Orbital Inclination(rad): 0.9799524674 Rate of Right Ascen(r/s): -7.588887536e-09 SQRT(A) (m 1/2): 5153.665527 Right Ascen at Week(rad): -2.222219845 Argument of Perigee(rad): 1.41694135 Mean Anom(rad): -2.430845352 Af0(s): -0.0001816355103 Af1(s/s): 0 week: 360 ******** Week 360 almanac for PRN-6 ******** ID: 6 Health: 0 Eccentricity: 0.003852367401 Time of Applicability(s): 589824 Orbital Inclination(rad): 0.9871070496 Rate of Right Ascen(r/s): -7.726036106e-09 SQRT(A) (m 1/2): 5153.594727 Right Ascen at Week(rad): 3.084602422 Argument of Perigee(rad): -0.561775523 Mean Anom(rad): 1.523323442 Af0(s): -0.0004838589111 Af1(s/s): 0 week: 360 ******** Week 360 almanac for PRN-7 ******** ID: 7 Health: 0 Eccentricity: 0.02051115036 Time of Applicability(s): 589824 Orbital Inclination(rad): 0.9513161619 Rate of Right Ascen(r/s): -7.920329913e-09 SQRT(A) (m 1/2): 5153.566895 Right Ascen at Week(rad): -0.08300536328 Argument of Perigee(rad): -1.990518713 Mean Anom(rad): 0.6626343853 Af0(s): -0.0001243562622 Af1(s/s): -3.637979e-12 week: 360 ******** Week 360 almanac for PRN-8 ******** ID: 8 Health: 0 Eccentricity: 0.01158332825 Time of Applicability(s): 589824 Orbital Inclination(rad): 0.9431608969 Rate of Right Ascen(r/s): -8.331775623e-09 SQRT(A) (m 1/2): 5153.631348 Right Ascen at Week(rad): 1.964124207 Argument of Perigee(rad): 0.5249221588 Mean Anom(rad): -2.793705961 Af0(s): 0.0003806055298 Af1(s/s): -7.275958e-12 week: 360 ******** Week 360 almanac for PRN-9 ******** ID: 9 Health: 0 Eccentricity: 0.003351688385 Time of Applicability(s): 589824 Orbital Inclination(rad): 0.9645767068 Rate of Right Ascen(r/s): -8.000333246e-09 SQRT(A) (m 1/2): 5153.716797 Right Ascen at Week(rad): -1.156000582 Argument of Perigee(rad): 2.06785741 Mean Anom(rad): -2.20222117 Af0(s): 0.0006067078247 Af1(s/s): 0 week: 360 ******** Week 360 almanac for PRN-10 ******** ID: 10 Health: 0 Eccentricity: 0.01094198227 Time of Applicability(s): 589824 Orbital Inclination(rad): 0.9929134066 Rate of Right Ascen(r/s): -7.463168014e-09 SQRT(A) (m 1/2): 5153.610352 Right Ascen at Week(rad): -2.164925887 Argument of Perigee(rad): -2.255684295 Mean Anom(rad): -0.7825264438 Af0(s): -0.0004665244019 Af1(s/s): 0 week: 360 ******** Week 360 almanac for PRN-11 ******** ID: 11 Health: 0 Eccentricity: 0.002202033997 Time of Applicability(s): 589824 Orbital Inclination(rad): 0.9639715034 Rate of Right Ascen(r/s): -7.943188008e-09 SQRT(A) (m 1/2): 5153.527832 Right Ascen at Week(rad): 3.10327759 Argument of Perigee(rad): -2.30302086 Mean Anom(rad): 2.615120786 Af0(s): -0.0003278483276 Af1(s/s): 1.455192e-11 week: 360 ******** Week 360 almanac for PRN-12 ******** ID: 12 Health: 0 Eccentricity: 0.009015083313 Time of Applicability(s): 589824 Orbital Inclination(rad): 0.9591418608 Rate of Right Ascen(r/s): -7.771752296e-09 SQRT(A) (m 1/2): 5153.726074 Right Ascen at Week(rad): 1.034496645 Argument of Perigee(rad): 1.560950912 Mean Anom(rad): -0.0005782388519 Af0(s): -0.0004800905395 Af1(s/s): 0 week: 360 ******** Week 360 almanac for PRN-13 ******** ID: 13 Health: 0 Eccentricity: 0.01000833511 Time of Applicability(s): 589824 Orbital Inclination(rad): 0.9760815627 Rate of Right Ascen(r/s): -7.897471818e-09 SQRT(A) (m 1/2): 5153.614746 Right Ascen at Week(rad): -0.9807743609 Argument of Perigee(rad): 0.9963463631 Mean Anom(rad): -3.039921487 Af0(s): 0.0005411381592 Af1(s/s): 0 week: 360 ******** Week 360 almanac for PRN-14 ******** ID: 14 Health: 0 Eccentricity: 0.006740093231 Time of Applicability(s): 589824 Orbital Inclination(rad): 0.9425197409 Rate of Right Ascen(r/s): -7.908900866e-09 SQRT(A) (m 1/2): 5153.60498 Right Ascen at Week(rad): 0.9797740526 Argument of Perigee(rad): -2.747856563 Mean Anom(rad): -0.1562256069 Af0(s): 0.0005833439209 Af1(s/s): 3.637979e-12 week: 360 ******** Week 360 almanac for PRN-15 ******** ID: 15 Health: 0 Eccentricity: 0.01661062241 Time of Applicability(s): 589824 Orbital Inclination(rad): 0.9424478355 Rate of Right Ascen(r/s): -8.206056101e-09 SQRT(A) (m 1/2): 5153.635742 Right Ascen at Week(rad): -1.300222115 Argument of Perigee(rad): 1.502677993 Mean Anom(rad): 2.491933815 Af0(s): 0.000309760144 Af1(s/s): 3.637979e-12 week: 360 ******** Week 360 almanac for PRN-16 ******** ID: 16 Health: 0 Eccentricity: 0.01504421234 Time of Applicability(s): 589824 Orbital Inclination(rad): 0.9582610203 Rate of Right Ascen(r/s): -7.806039438e-09 SQRT(A) (m 1/2): 5153.604492 Right Ascen at Week(rad): 1.051465933 Argument of Perigee(rad): 0.929708455 Mean Anom(rad): -1.765101809 Af0(s): 0.0001748524414 Af1(s/s): 7.275958e-12 week: 360 ******** Week 360 almanac for PRN-17 ******** ID: 17 Health: 0 Eccentricity: 0.0126619339 Time of Applicability(s): 589824 Orbital Inclination(rad): 0.9588662236 Rate of Right Ascen(r/s): -8.194627053e-09 SQRT(A) (m 1/2): 5153.540039 Right Ascen at Week(rad): 2.068946102 Argument of Perigee(rad): -1.120642999 Mean Anom(rad): -2.861509709 Af0(s): -6.406231689e-05 Af1(s/s): -1.091394e-11 week: 360 ******** Week 360 almanac for PRN-18 ******** ID: 18 Health: 0 Eccentricity: 0.005751609802 Time of Applicability(s): 589824 Orbital Inclination(rad): 0.9720608553 Rate of Right Ascen(r/s): -7.886042771e-09 SQRT(A) (m 1/2): 5153.590332 Right Ascen at Week(rad): 3.079499764 Argument of Perigee(rad): -2.865756619 Mean Anom(rad): 1.437269966 Af0(s): -0.0003225726074 Af1(s/s): 1.091394e-11 week: 360 ******** Week 360 almanac for PRN-19 ******** ID: 19 Health: 0 Eccentricity: 0.01113653183 Time of Applicability(s): 589824 Orbital Inclination(rad): 0.9580512963 Rate of Right Ascen(r/s): -8.206056101e-09 SQRT(A) (m 1/2): 5153.665527 Right Ascen at Week(rad): 2.112848812 Argument of Perigee(rad): 2.932937937 Mean Anom(rad): -1.050372747 Af0(s): 0.000547921228 Af1(s/s): 0 week: 360 ******** Week 360 almanac for PRN-20 ******** ID: 20 Health: 255 Eccentricity: 0.002274513245 Time of Applicability(s): 589824 Orbital Inclination(rad): 0.9599807566 Rate of Right Ascen(r/s): -8.046049436e-09 SQRT(A) (m 1/2): 5153.695801 Right Ascen at Week(rad): -1.150408068 Argument of Perigee(rad): -2.010592664 Mean Anom(rad): -0.007924943229 Af0(s): 3.014697266e-05 Af1(s/s): 2.546585e-11 week: 360 ******** Week 360 almanac for PRN-21 ******** ID: 21 Health: 0 Eccentricity: 0.0007519721985 Time of Applicability(s): 589824 Orbital Inclination(rad): 0.9627850652 Rate of Right Ascen(r/s): -7.783181343e-09 SQRT(A) (m 1/2): 5153.720703 Right Ascen at Week(rad): -2.15632009 Argument of Perigee(rad): -0.3292654559 Mean Anom(rad): -0.2904833806 Af0(s): 0.0003210652588 Af1(s/s): 3.637979e-12 week: 360 ******** Week 360 almanac for PRN-22 ******** ID: 22 Health: 0 Eccentricity: 0.01208925247 Time of Applicability(s): 589824 Orbital Inclination(rad): 0.9577037538 Rate of Right Ascen(r/s): -7.806039438e-09 SQRT(A) (m 1/2): 5153.57959 Right Ascen at Week(rad): 1.054817771 Argument of Perigee(rad): -0.9931896434 Mean Anom(rad): -2.213735763 Af0(s): -2.939329834e-05 Af1(s/s): 3.637979e-12 week: 360 ******** Week 360 almanac for PRN-23 ******** ID: 23 Health: 0 Eccentricity: 0.006041526794 Time of Applicability(s): 589824 Orbital Inclination(rad): 0.9879219769 Rate of Right Ascen(r/s): -7.486026109e-09 SQRT(A) (m 1/2): 5153.664551 Right Ascen at Week(rad): -2.197034247 Argument of Perigee(rad): -2.738227238 Mean Anom(rad): 0.299165577 Af0(s): 0.00049064198 Af1(s/s): 3.637979e-12 week: 360 ******** Week 360 almanac for PRN-24 ******** ID: 24 Health: 0 Eccentricity: 0.01791858673 Time of Applicability(s): 589824 Orbital Inclination(rad): 0.9352752769 Rate of Right Ascen(r/s): -8.114623721e-09 SQRT(A) (m 1/2): 5153.589355 Right Ascen at Week(rad): -0.1915577235 Argument of Perigee(rad): 1.135888056 Mean Anom(rad): 1.644702668 Af0(s): -7.310640869e-05 Af1(s/s): 1.818989e-11 week: 360 ******** Week 360 almanac for PRN-25 ******** ID: 25 Health: 0 Eccentricity: 0.01293420792 Time of Applicability(s): 589824 Orbital Inclination(rad): 0.9475650995 Rate of Right Ascen(r/s): -7.863184676e-09 SQRT(A) (m 1/2): 5153.675293 Right Ascen at Week(rad): 0.9406107291 Argument of Perigee(rad): 1.157445805 Mean Anom(rad): -0.1330226495 Af0(s): 0.0003466901855 Af1(s/s): -3.637979e-12 week: 360 ******** Week 360 almanac for PRN-26 ******** ID: 26 Health: 0 Eccentricity: 0.01101064682 Time of Applicability(s): 589824 Orbital Inclination(rad): 0.9283783555 Rate of Right Ascen(r/s): -8.034620388e-09 SQRT(A) (m 1/2): 5153.668945 Right Ascen at Week(rad): 0.8659849606 Argument of Perigee(rad): 0.7096484996 Mean Anom(rad): -0.9535754134 Af0(s): -0.000266800708 Af1(s/s): -3.637979e-12 week: 360 ******** Week 360 almanac for PRN-27 ******** ID: 27 Health: 0 Eccentricity: 0.01436758041 Time of Applicability(s): 589824 Orbital Inclination(rad): 0.9522629157 Rate of Right Ascen(r/s): -8.251772291e-09 SQRT(A) (m 1/2): 5153.611328 Right Ascen at Week(rad): 1.996210845 Argument of Perigee(rad): 0.8822988613 Mean Anom(rad): -2.692324661 Af0(s): -4.823515625e-05 Af1(s/s): -1.091394e-11 week: 360 ******** Week 360 almanac for PRN-28 ******** ID: 28 Health: 0 Eccentricity: 0.0004239082336 Time of Applicability(s): 589824 Orbital Inclination(rad): 0.9622457751 Rate of Right Ascen(r/s): -7.828897533e-09 SQRT(A) (m 1/2): 5153.745117 Right Ascen at Week(rad): -0.1086856847 Argument of Perigee(rad): -0.01096931086 Mean Anom(rad): 1.00157523 Af0(s): -0.0004604950073 Af1(s/s): 7.275958e-12 week: 360 ******** Week 360 almanac for PRN-29 ******** ID: 29 Health: 0 Eccentricity: 0.003373146057 Time of Applicability(s): 589824 Orbital Inclination(rad): 0.9615207295 Rate of Right Ascen(r/s): -8.171768958e-09 SQRT(A) (m 1/2): 5153.703125 Right Ascen at Week(rad): 2.085688814 Argument of Perigee(rad): 2.740156699 Mean Anom(rad): -2.828728734 Af0(s): -0.0002871499145 Af1(s/s): 7.275958e-12 week: 360 ******** Week 360 almanac for PRN-30 ******** ID: 30 Health: 0 Eccentricity: 0.008076190948 Time of Applicability(s): 589824 Orbital Inclination(rad): 0.9365695732 Rate of Right Ascen(r/s): -8.091765626e-09 SQRT(A) (m 1/2): 5153.69873 Right Ascen at Week(rad): -0.09207180393 Argument of Perigee(rad): -2.315736497 Mean Anom(rad): 0.4882159759 Af0(s): 0.0001145584961 Af1(s/s): 1.455192e-11 week: 360 ******** Week 360 almanac for PRN-31 ******** ID: 31 Health: 0 Eccentricity: 0.01086091995 Time of Applicability(s): 589824 Orbital Inclination(rad): 0.9550852007 Rate of Right Ascen(r/s): -7.863184676e-09 SQRT(A) (m 1/2): 5153.518555 Right Ascen at Week(rad): -0.05877101347 Argument of Perigee(rad): 0.9359780772 Mean Anom(rad): -0.4322492711 Af0(s): -0.0001288783081 Af1(s/s): 3.637979e-12 week: 360 ******** Week 360 almanac for PRN-32 ******** ID: 32 Health: 0 Eccentricity: 0.009356021881 Time of Applicability(s): 589824 Orbital Inclination(rad): 0.9676206999 Rate of Right Ascen(r/s): -7.966046103e-09 SQRT(A) (m 1/2): 5153.67627 Right Ascen at Week(rad): -1.138973994 Argument of Perigee(rad): -1.996994314 Mean Anom(rad): -2.118630826 Af0(s): -4.748148193e-05 Af1(s/s): 1.818989e-11 week: 360